Regional Weather Roundup
Issued by NWS Wakefield, VA

Home | Current Version | Previous Version | Graphics & Text | Print | Product List | Glossary On
Versions: 1 2 3 4 5 6 7 8 9 10 11 12 13 14 15 16 17 18 19 20 21 22 23 24 25 26 27 28 29 30 31 32 33 34 35 36 37 38 39 40 41 42 43 44 45 46 47 48 49 50
361
ASUS41 KAKQ 221915
RWRAKQ

REGIONAL WEATHER ROUNDUP
NATIONAL WEATHER SERVICE WAKEFIELD VA
200 PM EST WED NOV 22 2017

Note: "fair" indicates few or no clouds below 12,000 feet with no
significant weather and/or obstructions to visibility. * = Denotes
station may not report precipitation (e.g., rain,snow,etc.),
thunder or fog.

VAZ042-051-052>054-056-222000-
NORTHERN VIRGINIA

CITY           SKY/WX    TMP DP  RH WIND       PRES   REMARKS
WASH NATIONAL  MOSUNNY   53  30  41 N25G32    30.03R
DULLES         MOSUNNY   51  29  42 N21G26    30.04R
FORT BELVOIR   MOSUNNY   53  29  39 NW20G26   30.02S
QUANTICO       NOT AVBL
FREDERICKSBRG* SUNNY     56  34  42 N12G22    30.01S
STAFFORD*      SUNNY     53  32  44 N16G25    30.06R
WARRENTON      NOT AVBL
CULPEPER*      SUNNY     55  26  32 NW13G20   30.05R
MANASSAS*      SUNNY     52  30  43 NW17G25   30.05R
LEESBURG*      PTSUNNY   52  32  46 NW20G25   30.05S
WINCHESTER     CLOUDY    43  28  56 NW13G20   30.08R
FRONT ROYAL*   CLEAR     46  27  46 MISG      30.07R
LURAY*         CLEAR     46  27  46 W14G21    30.08R
$$

VAZ048-049-060>072-079>083-222000-
CENTRAL AND SOUTH CENTRAL VIRGINIA

CITY           SKY/WX    TMP DP  RH WIND       PRES   REMARKS
RICHMOND       MOSUNNY   62  34  35 N17G23    29.98R
CHESTERFIELD*  NOT AVBL
PETERSBURG*    SUNNY    N/A N/A N/A W12       29.98S
HANOVER        SUNNY     61  32  33 NW10G22   30.00R
TAPPAHANNOCK*    N/A    N/A N/A N/A MISG        N/A
QUINTON*       FAIR      61  35  37 NW9G18    29.96S
CHARLOTTSVILLE SUNNY     57  27  31 NW9G16    30.02R
GORDONSVILLE*  CLEAR     56  26  31 N8G18     30.01R
ORANGE*        SUNNY     55  28  35 NW14      30.02R
LOUISA*        SUNNY     58  29  32 NW14      30.04R
BUMPASS*       FAIR      59  29  31 NW8       29.99S
FARMVILLE*     SUNNY     63  34  34 N6        29.99R
CREWE*         FAIR      61  35  37 NW9       29.99R
FORT PICKETT*  NOT AVBL
CHASE CITY*    FAIR      61  33  35 NW6       30.00S
CLARKSVILLE*   FAIR      61  36  39 NW7       30.00R
SOUTH HILL*    SUNNY     61  34  35 NW5       30.04S
LAWRENCEVILLE* FAIR      62  34  35 N8        29.98R
EMPORIA*       SUNNY     61  41  48 NW9       29.98F
$$

VAZ088>098-222000-
SOUTHEAST VIRGINIA

CITY           SKY/WX    TMP DP  RH WIND       PRES   REMARKS
NORFOLK        SUNNY     60  44  55 N12       29.94S
VIRGINIA BEACH PTSUNNY   61  42  49 N18G26    29.93S
NORFOLK NAVAL  MOSUNNY   63  45  51 N10       29.96S
WEST POINT*    SUNNY     62  34  35 N9        29.98R
SALUDA*        FAIR      58  40  51 N14G21    29.96R
NEWPORT NEWS   SUNNY     62  38  40 N14G22    29.95S
LANGLEY AFB    NOT AVBL
FORT EUSTIS    SUNNY     62  44  50 NW10      29.93S
WILLIAMSBURG*  SUNNY     66  39  37 NW15      29.96S
HR EXEC AP*    NOT AVBL
FRANKLIN*      MOSUNNY   62  44  51 N10       29.96S
US460-WAKEFLD  SUNNY     63  41  44 NW12G18   29.96S
$$

VAZ020-022-025-037-045-222000-
WEST CENTRAL AND SOUTHWEST VIRGINIA

CITY           SKY/WX    TMP DP  RH WIND       PRES   REMARKS
STAUNTON*      SUNNY     48  25  40 N16G23    30.07R
WAYNESBORO*    CLEAR     50  24  36 NW15G21   30.03R
HOT SPRINGS VA SUNNY     37  19  50 NW16G23   30.02R
LYNCHBURG      SUNNY     57  24  28 NW8       30.02R
DANVILLE       SUNNY     61  33  35 NW9       30.03R
SOUTH BOSTON*  FAIR      62  28  27 NW9       30.01S
MARTINSVILLE   SUNNY     57  28  33 N10       30.07R
ROANOKE        MOSUNNY   53  27  36 W13G22    30.08R
BLACKSBURG     SUNNY     48  28  45 W8G16     30.09S
DUBLIN*        SUNNY     49  29  45 N10       30.08S
MARION*        SUNNY     48  26  42 W12G18    30.09S
HILLSVILLE*    SUNNY     47  25  42 NW16G22   30.04S
RICHLANDS*     FAIR      43   0  16 W7        30.11S
WISE*          SUNNY     43  32  65 NW5       30.14S
ABINGDON*      SUNNY     50  31  47 NW9       30.11S
$$

MDZ021>025-VAZ099-100-222000-
SOUTHERN MARYLAND AND THE DELMARVA PENINSULA

CITY           SKY/WX    TMP DP  RH WIND       PRES   REMARKS
PATUXENT RIVER MOSUNNY   56  37  49 NW20      29.97R
BAY BRIDGE APT SUNNY     54  34  47 NW15G25   29.99R
LEONARDTOWN    SUNNY     55  34  44 NW9G18    29.99S
DOVER          MOSUNNY   57  34  41 NW20G29   29.94R
GEORGETOWN     PTSUNNY   60  38  43 N12G23    29.93R
EASTON         MOSUNNY   55  32  41 NW15G25   30.01R
CAMBRIDGE      SUNNY     55  36  47 NW17G28   29.96S
SALISBURY      SUNNY     58  37  45 NW17G28   29.93R
OCEAN CITY     SUNNY     59  39  47 N18G28    29.92S
WALLOPS ISLAND MOSUNNY   60  39  45 NW16G25   29.93R
ACCOMACK*      SUNNY     60  42  50 NW16G22   29.94S
$$

NCZ012>017-030>032-222000-
NORTH CENTRAL AND EASTERN NORTH CAROLINA

CITY           SKY/WX    TMP DP  RH WIND       PRES   REMARKS
ROANOKE RAPIDS FAIR      63  43  48 NW12      29.97S
RALEIGH        MOSUNNY   61  30  31 N12G21    30.01S
ELIZABETH CITY SUNNY     64  48  56 N13       29.93R
AHOSKIE*       MOSUNNY   62  46  55 N6        29.97R
EDENTON*       CLOUDY    66  53  62 N13G18    29.94S
CURRITUCK*     MOSUNNY   62  47  59 N14G20    29.94R
KILL DEVIL HLS SUNNY     60  49  66 N8G20     29.92R
MANTEO         MOSUNNY   61  50  67 N15G21    29.94R
CAPE HATTERAS  MOSUNNY   65  59  81 VRB3      29.92S
TARBORO*       NOT AVBL
GOLDSBORO      SUNNY     67  39  35 NW13G18   29.96R
WASHINGTON     SUNNY     66  47  49 NW10G18   29.95S
GREENVILLE     SUNNY     66  45  45 N8G16     29.98S
NEW BERN       SUNNY     67  50  54 N14       29.95S
WILMINGTON     MOSUNNY   71  50  47 N13       29.94S
$$

VAZ048-222000-
ELSEWHERE

CITY           SKY/WX    TMP DP  RH WIND       PRES   REMARKS
HARRISBURG PA  CLOUDY    47  28  47 NW17G26   30.02R
BALTIMORE      MOSUNNY   52  30  43 NW20G30   30.01R
ANNAPOLIS      SUNNY     53  34  48 NW17G28   30.00R
ANDREWS AFB    SUNNY     51  29  41 NW24G31   30.00R
PHILADELPHIA   MOSUNNY   54  32  43 NW24G32   29.95R
HENDERSON NC   SUNNY     59  32  36 N5        30.00S
GREENSBORO     MOSUNNY   61  32  33 NW7       30.02F
ROCKY MOUNT    SUNNY     63  40  42 N13       29.99R
$$

VAZ100-222000-
MARINE

STATION/POSITION TIME  TEMP    WIND        PRES    WAVE   SWELL
                       AIR SEA DIR/SP/G            HT/PER HT/PER
                 (UTC) (F)     (DEG/KT/KT) (MB)    (FT/S) (FT/S)
BRANDYWINE LGT   1842   54     340/ 23/ 27 1013.3S
CAPE MAY NJ      1842   54 51  330/ 10/ 27 1012.6R
LEWES DE         1842   54 53  340/ 21/ 28 1013.0S
15NM E FENWICK I 1850   56 58  320/ 23/ 27 1012.3R   5/ 5   2/ 8
OCEAN-CITY-INLET 1842   58 54  350/ 14/ 18 1013.1S
WACHAPREAGUE VA  1842   59 53  320/  8/ 17 1013.5F
THOMAS POINT MD  1800   53 53  320/ 17/ 21   N/A
GOOSES REEF MD   1850   53     340/ 21/ 27 1019.7F
COVE POINT MD    1842   53     350/ 21/ 25 1015.5R
SOLOMONS ISLAND  1842   55 54  320/ 11/ 21 1014.8R
BISHOPS HEAD MD  1842   56 53  310/ 16/ 24 1015.0R
PINEY POINT MD   1836          330/ 24/ 26   N/A
POTOMAC MD       1850   55     300/ 21/ 27 1014.2R
CAMBRIDGE MD     1842   56 51              1015.5R
LEWISETTA VA     1842   55 52  330/ 17/ 24 1015.1R
RAPPAHANNOCK LGT 1836          320/ 19/ 22 1014.5F
STINGRAY PT      1850   58     360/ 16/ 21 1014.6S
YORK RVR RNG VA  1836   58     350/ 16/ 18 1014.4R
YORKTOWN VA      1836   58 55  310/ 16/ 20 1013.8F
JAMESTOWN VA     1850          340/ 12/ 14   N/A
DOMINION TERM VA 1836   61     340/  5/  9 1014.1S
KIPTOPEKE VA     1836      54  350/ 21/ 25   N/A
CAPE HENRY VA    1836   56     340/ 14/ 16   N/A
WILLOUBY STN VA  1836   59     320/ 15/ 19 1013.8S
S CRANEY ISL VA  1836   60     350/ 12/ 15 1013.7S
CAPE HENRY BUOY  1900      57                N/A     4/ 8
1ST LANDING BUOY 1850   57      20/ 12/ 14 1013.9F
CAPE CHARLES BUO 1851      58                N/A     4/ 8
64NM E OF VA BCH 1850   60 62  340/ 23/ 29 1012.0R   6/ 8
DUCK PIER NC     1836   58 60   10/ 25/ 28 1012.7R
44100 DUCK FRF   1845      61                N/A     6/ 7
44056 DUCK FRF   1900      61                N/A     5/ 5
OREGON INLET NC  1836   61 56  340/ 15/ 22 1013.1R
HATTERAS NC      1836   60 60  320/  7/  8 1013.0R
DIAMOND SHLS NC  1850   64 75  340/ 16/ 21 1013.0R   6/ 9   5/ 9
CAPE LOOKOUT NC  1900          350/  9/ 11 1013.3F
$$




USA.gov is the U.S. government's official web portal to all federal, state and local government web resources and services.